Location: Bun Machan
(52.1403°N, 7.3744°W)
Time: 18:15:12
(UTC+00:00)

PSLV R/B - Pass Details

Date: 14 July 2020
Orbit: 598 x 701 km, 97.9° (Epoch: 13 August)

Event Time Altitude Azimuth Distance (km) Brightness Sun altitude
Rises 01:23:34 0° 12° (NNE) 2,871 8.9 -15.5°
Reaches altitude 10° 01:25:45 10° 9° (N) 1,971 7.5 -15.4°
Maximum altitude 01:29:58 64° 289° (WNW) 687 3.8 -15.3°
Enters shadow 01:32:25 25° 214° (SSW) 1,276 4.6 -15.2°
